GW0912 Weather Reports


time (UTC)temp
C
wind
direction
speed
KPH
gust
KPH
rain 1hr
cm
rain 24hr
cm
rain mn
cm
humidity
%
barometer
mb
20260503215336 20 98 4.8 6.4 0.00 0.00 0.00 59 1019.7
20260503214833 20 172 0.0 11.3 0.00 0.00 0.00 59 1019.8
20260503214330 20 12 1.6 9.7 0.00 0.00 0.00 58 1019.7
20260503213827 20 135 3.2 12.9 0.00 0.00 0.00 57 1019.6
20260503213325 20 186 4.8 8.0 0.00 0.00 0.00 58 1019.8
20260503212822 20 86 4.8 6.4 0.00 0.00 0.00 58 1019.7
20260503212320 19 14 1.6 12.9 0.00 0.00 0.00 60 1019.9
20260503211817 20 74 0.0 9.7 0.00 0.00 0.00 59 1019.8
20260503211314 20 7 1.6 9.7 0.00 0.00 0.00 59 1020.1
20260503210813 20 33 4.8 12.9 0.00 0.00 0.00 57 1019.8
20260503210311 20 90 3.2 14.5 0.00 0.00 0.00 58 1020.0
20260503205806 20 342 1.6 8.0 0.00 0.00 0.00 56 1020.1
20260503205304 20 180 1.6 8.0 0.00 0.00 0.00 57 1020.3
20260503204759 19 203 4.8 9.7 0.00 0.00 0.00 58 1020.0
20260503204257 20 173 1.6 8.0 0.00 0.00 0.00 55 1020.1
20260503203754 20 105 4.8 12.9 0.00 0.00 0.00 56 1020.3
20260503203251 20 79 4.8 9.7 0.00 0.00 0.00 57 1020.4
20260503202748 21 340 1.6 8.0 0.00 0.00 0.00 55 1020.2
20260503202246 20 106 0.0 14.5 0.00 0.00 0.00 57 1020.3
20260503201744 21 350 3.2 6.4 0.00 0.00 0.00 56 1020.3
20260503201241 20 83 4.8 11.3 0.00 0.00 0.00 55 1020.3
20260503200738 21 241 6.4 11.3 0.00 0.00 0.00 54 1020.3
20260503200234 20 96 3.2 9.7 0.00 0.00 0.00 56 1020.4
20260503195731 20 129 8.0 9.7 0.00 0.00 0.00 56 1020.3
20260503195228 20 117 3.2 4.8 0.00 0.00 0.00 58 1020.5
20260503194726 20 184 3.2 11.3 0.00 0.00 0.00 54 1020.5
20260503194221 20 138 4.8 9.7 0.00 0.00 0.00 57 1020.7
20260503193717 21 90 1.6 11.3 0.00 0.00 0.00 55 1020.9
20260503193214 20 65 3.2 11.3 0.00 0.00 0.00 56 1020.9
20260503192709 20 90 3.2 12.9 0.00 0.00 0.00 57 1020.9
20260503192205 20 191 0.0 9.7 0.00 0.00 0.00 57 1021.2
20260503191702 21 256 4.8 8.0 0.00 0.00 0.00 55 1021.2
20260503191159 21 270 0.0 9.7 0.00 0.00 0.00 55 1021.2
20260503190655 21 283 0.0 9.7 0.00 0.00 0.00 54 1021.2
20260503190152 21 134 9.7 14.5 0.00 0.00 0.00 54 1021.3
20260503185649 21 214 0.0 8.0 0.00 0.00 0.00 52 1021.3
20260503185144 21 285 1.6 3.2 0.00 0.00 0.00 50 1021.4
20260503184639 21 297 1.6 3.2 0.00 0.00 0.00 48 1021.6
20260503184136 22 308 3.2 4.8 0.00 0.00 0.00 49 1021.4
20260503183632 22 286 0.0 3.2 0.00 0.00 0.00 49 1021.6
20260503183130 21 291 0.0 4.8 0.00 0.00 0.00 50 1021.7
20260503182628 21 214 4.8 8.0 0.00 0.00 0.00 48 1021.5
20260503182126 21 254 0.0 6.4 0.00 0.00 0.00 47 1021.8
20260503181623 22 336 0.0 6.4 0.00 0.00 0.00 49 1021.7
20260503181120 20 195 0.0 3.2 0.00 0.00 0.00 48 1021.7
20260503180617 21 312 3.2 4.8 0.00 0.00 0.00 55 1021.6
20260503180115 21 280 3.2 8.0 0.00 0.00 0.00 51 1021.8
20260503175611 22 8 0.0 4.8 0.00 0.00 0.00 50 1021.8
20260503175108 20 180 3.2 4.8 0.00 0.00 0.00 48 1022.0
20260503174605 22 172 0.0 3.2 0.00 0.00 0.00 48 1021.9
20260503174102 21 270 1.6 6.4 0.00 0.00 0.00 52 1021.9
20260503173557 21 114 1.6 4.8 0.00 0.00 0.00 50 1021.8
20260503173054 21 15 0.0 4.8 0.00 0.00 0.00 46 1021.7
20260503172551 21 283 0.0 3.2 0.00 0.00 0.00 52 1022.1
20260503172048 21 287 3.2 6.4 0.00 0.00 0.00 50 1022.1
20260503171544 21 270 0.0 6.4 0.00 0.00 0.00 52 1022.3
20260503171042 21 263 4.8 4.8 0.00 0.00 0.00 50 1022.2
20260503170538 21 235 0.0 8.0 0.00 0.00 0.00 50 1022.3
20260503150931 18 161 6.4 8.0 0.00 0.00 0.00 55 1022.8
20260503150427 19 250 4.8 6.4 0.00 0.00 0.00 56 1022.8
20260503131320 15 0 3.2 8.0 0.05 0.00 0.00 91 1022.2
20260503130818 14 294 3.2 8.0 0.00 0.00 0.00 95 1022.1
20260503130315 14 307 3.2 4.8 0.00 0.00 0.00 98 1022.2
20260503110708 9 99 0.0 0.0 0.00 0.00 0.00 99 1021.0
20260503110206 9 99 0.0 0.0 0.00 0.00 0.00 99 1021.1
20260503100132 8 352 0.0 0.0 0.00 0.00 0.00 99 1020.0
20260503081522 10 291 0.0 1.6 0.00 0.00 0.00 99 1019.4
20260503081019 10 279 0.0 1.6 0.00 0.00 0.00 99 1019.1
20260503080515 10 286 0.0 0.0 0.00 0.00 0.00 99 1019.3
20260503072449 10 276 0.0 1.6 0.00 0.00 0.00 99 1018.8
20260503071945 10 279 0.0 1.6 0.00 0.00 0.00 99 1018.8
20260503071442 10 286 0.0 1.6 0.00 0.00 0.00 99 1018.7
20260503070938 10 270 0.0 3.2 0.00 0.00 0.00 99 1018.7
20260503070436 10 278 0.0 3.2 0.00 0.00 0.00 99 1018.8
20260503054849 11 356 0.0 3.2 0.00 0.00 0.00 99 1018.7
20260503054345 11 283 0.0 3.2 0.00 0.00 0.00 99 1018.5
20260503053843 11 285 0.0 1.6 0.00 0.00 0.00 99 1018.6
20260503053341 11 279 0.0 1.6 0.00 0.00 0.00 99 1018.5
20260503052837 11 337 0.0 3.2 0.00 0.00 0.00 99 1018.5
20260503052334 11 330 3.2 4.8 0.00 0.00 0.00 99 1018.7
20260503051830 11 289 1.6 4.8 0.00 0.00 0.00 99 1018.4
20260503051327 11 348 3.2 3.2 0.00 0.00 0.00 99 1018.6
20260503050824 11 313 4.8 4.8 0.00 0.00 0.00 99 1018.3
20260503050320 11 312 0.0 3.2 0.00 0.00 0.00 99 1018.1
20260503045818 11 331 1.6 4.8 0.00 0.00 0.00 99 1018.1
20260503045315 11 279 0.0 3.2 0.00 0.00 0.00 99 1018.3
20260503044811 11 265 0.0 4.8 0.00 0.00 0.00 99 1018.4
20260503044309 11 311 0.0 4.8 0.00 0.00 0.00 99 1018.2
20260503043806 11 315 3.2 4.8 0.00 0.00 0.00 99 1018.3
20260503043303 11 324 0.0 4.8 0.00 0.00 0.00 99 1017.8
20260503042759 12 356 0.0 3.2 0.00 0.00 0.00 99 1018.0
20260503042256 12 282 1.6 1.6 0.00 0.00 0.00 99 1017.9
20260503041751 12 270 0.0 3.2 0.00 0.00 0.00 99 1018.1
20260503041249 12 279 3.2 4.8 0.00 0.00 0.00 99 1018.0
20260503040747 12 270 1.6 4.8 0.00 0.00 0.00 99 1017.7
20260503040244 12 306 1.6 4.8 0.00 0.00 0.00 99 1017.9
20260503035741 12 3 6.4 6.4 0.00 2.49 2.49 99 1017.6
20260503035238 12 348 6.4 6.4 0.00 2.49 2.49 99 1017.8
20260503034735 12 356 0.0 3.2 0.00 2.49 2.49 99 1017.3
20260503034232 12 301 3.2 4.8 0.00 2.49 2.49 99 1017.5
20260503033730 12 255 1.6 3.2 0.00 2.49 2.49 99 1017.5
20260503033227 12 275 3.2 3.2 0.00 2.49 2.49 99 1017.4
20260503032725 12 270 1.6 3.2 0.00 2.49 2.49 99 1017.5
20260503032224 12 270 1.6 3.2 0.00 2.49 2.49 99 1017.3
20260503031720 12 306 0.0 1.6 0.00 2.49 2.49 99 1017.2
20260503031218 13 311 0.0 3.2 0.00 2.49 2.49 99 1017.1
20260503030714 13 7 0.0 3.2 0.00 2.49 2.49 99 1017.1
20260503030211 13 270 0.0 1.6 0.00 2.49 2.49 99 1017.0
20260503025708 13 356 0.0 3.2 0.00 2.49 2.49 99 1017.0
20260503025206 13 279 0.0 0.0 0.00 2.49 2.49 99 1017.0
20260503024702 13 342 1.6 3.2 0.00 2.49 2.49 99 1016.8
20260503024159 13 0 1.6 3.2 0.00 2.49 2.49 99 1016.7
20260503023656 13 303 3.2 3.2 0.00 2.49 2.49 99 1016.7
20260503023152 13 281 3.2 3.2 0.00 2.49 2.49 99 1016.5
20260503022649 13 265 3.2 3.2 0.00 2.49 2.49 99 1016.4
20260503022148 12 302 4.8 4.8 0.00 2.49 2.49 99 1016.4
20260503021645 12 270 1.6 3.2 0.00 2.49 2.49 99 1016.4
20260503021142 12 286 0.0 1.6 0.00 2.49 2.49 99 1016.2
20260503020639 12 300 0.0 3.2 0.00 2.49 2.49 99 1016.1
20260503020137 12 307 3.2 3.2 0.00 2.49 2.49 99 1016.1
20260503015633 12 300 0.0 4.8 0.00 2.49 2.49 99 1016.1
20260503015130 12 297 1.6 3.2 0.00 2.49 2.49 99 1015.9
20260503014626 12 356 3.2 3.2 0.00 2.49 2.49 99 1015.7
20260503014124 12 0 3.2 8.0 0.00 2.49 2.49 99 1015.6
20260503013621 12 350 4.8 4.8 0.00 2.49 2.49 99 1015.7
20260503013119 12 286 0.0 6.4 0.00 2.49 2.49 99 1015.6
20260503012616 12 285 1.6 3.2 0.00 2.49 2.49 99 1015.8
20260503012113 12 277 0.0 4.8 0.00 2.49 2.49 99 1015.7
20260503011609 12 255 0.0 3.2 0.00 2.49 2.49 99 1015.8
20260503011107 12 326 3.2 4.8 0.00 2.49 2.49 99 1015.7
20260503010603 12 341 3.2 8.0 0.00 2.49 2.49 99 1015.8
20260503010100 12 337 1.6 3.2 0.00 2.49 2.49 99 1015.7
20260503005557 12 354 1.6 4.8 0.00 2.49 2.49 99 1015.7
20260503005054 12 270 0.0 4.8 0.00 2.49 2.49 99 1015.5
20260503004550 12 334 3.2 6.4 0.00 2.49 2.49 99 1015.4
20260503004049 12 337 1.6 4.8 0.00 2.49 2.49 99 1015.4
20260503003545 12 339 3.2 3.2 0.00 2.49 2.49 99 1015.2
20260503003042 12 270 0.0 3.2 0.00 2.49 2.49 99 1015.1
20260503002539 12 270 0.0 4.8 0.00 2.49 2.49 99 1015.0
20260503002036 12 332 3.2 4.8 0.00 2.49 2.49 99 1014.6
20260503001532 12 347 6.4 8.0 0.00 2.49 2.49 99 1014.7
20260503001030 12 346 0.0 8.0 0.00 2.49 2.49 99 1014.8
20260503000527 12 352 3.2 4.8 0.00 2.49 2.49 99 1014.8
20260503000024 12 334 0.0 4.8 0.00 2.49 2.49 99 1015.0
20260502235520 13 283 1.6 4.8 0.00 2.49 2.49 99 1014.8
20260502235019 12 270 0.0 3.2 0.00 2.49 2.49 99 1014.8
20260502234514 12 307 0.0 4.8 0.00 2.49 2.49 99 1014.7
20260502234012 12 7 4.8 4.8 0.00 2.49 2.49 99 1014.4
20260502233513 13 263 0.0 6.4 0.00 2.49 2.49 99 1014.5
20260502233010 13 350 0.0 4.8 0.00 2.49 2.49 99 1014.3
20260502232506 13 311 3.2 8.0 0.00 2.49 2.49 99 1014.6
20260502232003 13 306 0.0 4.8 0.00 2.49 2.49 99 1014.3
20260502231500 13 282 1.6 6.4 0.00 2.49 2.49 99 1014.0
20260502230958 13 334 4.8 4.8 0.00 2.49 2.49 99 1013.9
20260502230456 13 287 3.2 9.7 0.00 2.49 2.49 99 1014.0
20260502225954 13 346 0.0 8.0 0.00 2.49 2.49 99 1014.1
20260502225449 13 297 0.0 4.8 0.00 2.49 2.49 99 1013.9
20260502224946 13 323 3.2 8.0 0.00 2.49 2.49 99 1014.0
20260502224442 13 293 0.0 8.0 0.00 2.49 2.49 99 1014.1
20260502223940 13 343 8.0 8.0 0.00 2.49 2.49 99 1014.3
20260502223438 13 255 1.6 4.8 0.00 2.49 2.49 99 1014.1
20260502222936 13 339 3.2 6.4 0.00 2.49 2.49 99 1014.1
20260502222433 13 315 3.2 6.4 0.05 2.49 2.49 99 1014.2
20260502221928 13 324 0.0 4.8 0.05 2.49 2.49 99 1013.9
20260502221425 13 341 6.4 8.0 0.00 2.46 2.46 99 1014.0
20260502220922 13 283 0.0 4.8 0.00 2.46 2.46 99 1013.9
20260502220418 13 283 3.2 4.8 0.00 2.46 2.46 99 1013.8
20260502215914 13 299 0.0 6.4 0.00 2.46 2.46 99 1013.8